sat.trackr.live / text

‹ back to catalog

STARLINK-2411

NORAD 47826 · 2021-018AR

PAYLOAD ACTIVE UNKNOWN

§ Identity

Operator
Country
US
Launch date
2021-03-11
Launch site
AFETR
Launch vehicle
Mass (kg)
RCS (m²)

Purposes: comms

External: N2YO · Heavens-Above · Gunter

§ Orbital elements

Epoch: 2026-05-25T00:11:46.675968Z

Period
94.01 min
Inclination
53.1614°
Eccentricity
0.0000332
Mean motion
15.31699623 rev/d
Perigee alt
470.5 km
Apogee alt
471.0 km
Semi-major
6,848.9 km
B*
-5.8267e-5
RAAN
250.4214°
Arg perigee
93.9566°
Mean anomaly
266.1474°
Rev number
28,838

§ Raw data

STARLINK-24111 47826U 21018AR  26145.00817912 -.00002172  00000+0 -58267-4 0  99902 47826  53.1614 250.4214 0000332  93.9566 266.1474 15.31699623288387

JSON: /api/v1/satellites/47826 · /tle

For live sub-satellite position, see the globe view (requires WebGL).

§ Visibility from observer

Set your observer location to see the next 7 days of passes ≥ 10°. The values pass through the URL so the page stays shareable.

No JS? Fill the form by hand. The geolocation button needs JavaScript.